Location: Namasale
(1.5000°N, 32.6167°E)
Time: 22:03:51
(UTC+00:00)

Transit 2A - Pass Details

Date: 19 April 2021
Orbit: 602 x 957 km, 66.7° (Epoch: 11 May)

Event Time Altitude Azimuth Distance (km) Brightness Sun altitude
Rises 15:36:44 0° 334° (NNW) 3,044 9.7 3.2°
Reaches altitude 10° 15:38:58 10° 331° (NNW) 2,179 9.0 2.7°
Maximum altitude 15:43:53 64° 250° (WSW) 845 6.7 1.5°
Drops below altitude 10° 15:49:23 10° 169° (S) 2,424 8.4 0.1°
Sets 15:51:59 0° 166° (SSE) 3,416 9.1 -0.5°
